Data supplied by UK-AIR on 28/3/2019
All Data GMT hour ending 
Status: R =Ratified P=Provisional,P*=As supplied
,,Fort William,,,,,,,,,,,,,,,,,,,,,,,
Date,time,"Nitric oxide",status,unit,"Nitrogen dioxide",status,unit,"Nitrogen oxides as nitrogen dioxide",status,unit,"Ozone",status,unit
 
01-01-2018,01:00,0.61258,R,ugm-3,7.00797,R,ugm-3,7.94725,R,ugm-3,62.79803,R,ugm-3
01-01-2018,02:00,0.77965,R,ugm-3,4.10271,R,ugm-3,5.29817,R,ugm-3,75.83660,R,ugm-3
01-01-2018,03:00,0.54297,R,ugm-3,6.34561,R,ugm-3,7.17816,R,ugm-3,69.05122,R,ugm-3
01-01-2018,04:00,0.37590,R,ugm-3,6.92223,R,ugm-3,7.49861,R,ugm-3,63.01423,R,ugm-3
01-01-2018,05:00,0.16707,R,ugm-3,3.90973,R,ugm-3,4.16590,R,ugm-3,69.05122,R,ugm-3
01-01-2018,06:00,0.20884,R,ugm-3,2.94842,R,ugm-3,3.26863,R,ugm-3,74.24004,R,ugm-3
01-01-2018,07:00,0.16707,R,ugm-3,1.21792,R,ugm-3,1.47409,R,ugm-3,80.12736,R,ugm-3
01-01-2018,08:00,0.33414,R,ugm-3,2.43584,R,ugm-3,2.94817,R,ugm-3,77.28348,R,ugm-3
01-01-2018,09:00,0.12530,R,ugm-3,4.61468,R,ugm-3,4.80680,R,ugm-3,60.66928,R,ugm-3
01-01-2018,10:00,0.33414,R,ugm-3,3.65356,R,ugm-3,4.16590,R,ugm-3,56.87745,R,ugm-3
01-01-2018,11:00,0.29237,R,ugm-3,5.70441,R,ugm-3,6.15271,R,ugm-3,56.47831,R,ugm-3
01-01-2018,12:00,0.87711,R,ugm-3,7.62782,R,ugm-3,8.97270,R,ugm-3,49.34368,R,ugm-3
01-01-2018,13:00,0.58474,R,ugm-3,5.19203,R,ugm-3,6.08862,R,ugm-3,51.04003,R,ugm-3
01-01-2018,14:00,0.75181,R,ugm-3,5.83313,R,ugm-3,6.98589,R,ugm-3,45.35228,R,ugm-3
01-01-2018,15:00,4.67792,R,ugm-3,22.43720,R,ugm-3,29.60991,R,ugm-3,28.63830,R,ugm-3
01-01-2018,16:00,5.09559,R,ugm-3,31.02585,R,ugm-3,38.83897,R,ugm-3,28.38883,R,ugm-3
01-01-2018,17:00,1.12771,R,ugm-3,7.69220,R,ugm-3,9.42134,R,ugm-3,69.05122,R,ugm-3
01-01-2018,18:00,0.62651,R,ugm-3,6.02526,R,ugm-3,6.98589,R,ugm-3,71.64563,R,ugm-3
01-01-2018,19:00,0.87711,R,ugm-3,5.64101,R,ugm-3,6.98589,R,ugm-3,70.59789,R,ugm-3
01-01-2018,20:00,0.54297,R,ugm-3,3.26926,R,ugm-3,4.10181,R,ugm-3,68.65208,R,ugm-3
01-01-2018,21:00,0.54297,R,ugm-3,4.87153,R,ugm-3,5.70407,R,ugm-3,61.46756,R,ugm-3
01-01-2018,22:00,0.37590,R,ugm-3,2.17952,R,ugm-3,2.75590,R,ugm-3,67.15531,R,ugm-3
01-01-2018,23:00,0.54297,R,ugm-3,6.34561,R,ugm-3,7.17816,R,ugm-3,57.97509,R,ugm-3
01-01-2018,24:00,0.29237,R,ugm-3,3.01260,R,ugm-3,3.46090,R,ugm-3,61.16821,R,ugm-3
02-01-2018,01:00,0.39045,R,ugm-3,1.62640,R,ugm-3,2.22509,R,ugm-3,64.39459,R,ugm-3
02-01-2018,02:00,0.33467,R,ugm-3,2.13983,R,ugm-3,2.65298,R,ugm-3,64.12849,R,ugm-3
02-01-2018,03:00,1.25501,R,ugm-3,6.99740,R,ugm-3,8.92173,R,ugm-3,57.22670,R,ugm-3
02-01-2018,04:00,0.37650,R,ugm-3,4.23659,R,ugm-3,4.81388,R,ugm-3,57.72562,R,ugm-3
02-01-2018,05:00,1.79885,R,ugm-3,7.96071,R,ugm-3,10.71891,R,ugm-3,53.88390,R,ugm-3
02-01-2018,06:00,0.50201,R,ugm-3,4.42926,R,ugm-3,5.19899,R,ugm-3,39.51486,R,ugm-3
02-01-2018,07:00,0.25100,R,ugm-3,7.06061,R,ugm-3,7.44547,R,ugm-3,25.29550,R,ugm-3
02-01-2018,08:00,0.50201,R,ugm-3,5.39204,R,ugm-3,6.16177,R,ugm-3,35.17421,R,ugm-3
02-01-2018,09:00,0.37650,R,ugm-3,6.93236,R,ugm-3,7.50966,R,ugm-3,35.67314,R,ugm-3
02-01-2018,10:00,0.46017,R,ugm-3,4.68596,R,ugm-3,5.39155,R,ugm-3,55.92949,R,ugm-3
02-01-2018,11:00,0.83668,R,ugm-3,9.17929,R,ugm-3,10.46217,R,ugm-3,69.45036,R,ugm-3
02-01-2018,12:00,1.50602,R,ugm-3,10.91294,R,ugm-3,13.22213,R,ugm-3,68.25294,R,ugm-3
02-01-2018,13:00,2.80286,R,ugm-3,13.03232,R,ugm-3,17.32998,R,ugm-3,65.00993,R,ugm-3
02-01-2018,14:00,1.71519,R,ugm-3,10.52803,R,ugm-3,13.15795,R,ugm-3,64.36133,R,ugm-3
02-01-2018,15:00,2.13352,R,ugm-3,10.97774,R,ugm-3,14.24910,R,ugm-3,70.89724,R,ugm-3
02-01-2018,16:00,1.00401,R,ugm-3,6.41949,R,ugm-3,7.95895,R,ugm-3,83.76951,R,ugm-3
02-01-2018,17:00,0.62751,R,ugm-3,5.52053,R,ugm-3,6.48270,R,ugm-3,80.67617,R,ugm-3
02-01-2018,18:00,1.58968,R,ugm-3,14.50739,R,ugm-3,16.94487,R,ugm-3,62.71487,R,ugm-3
02-01-2018,19:00,1.67335,R,ugm-3,14.89258,R,ugm-3,17.45835,R,ugm-3,59.02283,R,ugm-3
02-01-2018,20:00,0.83668,R,ugm-3,12.19599,R,ugm-3,13.47887,R,ugm-3,53.28519,R,ugm-3
02-01-2018,21:00,0.66934,R,ugm-3,8.08798,R,ugm-3,9.11429,R,ugm-3,56.77767,R,ugm-3
02-01-2018,22:00,0.29284,R,ugm-3,5.19928,R,ugm-3,5.64829,R,ugm-3,62.41552,R,ugm-3
02-01-2018,23:00,0.33467,R,ugm-3,6.61139,R,ugm-3,7.12455,R,ugm-3,61.36778,R,ugm-3
02-01-2018,24:00,0.41834,R,ugm-3,7.12496,R,ugm-3,7.76640,R,ugm-3,56.42842,R,ugm-3
03-01-2018,01:00,0.16760,R,ugm-3,5.57102,R,ugm-3,5.82801,R,ugm-3,56.14569,R,ugm-3
03-01-2018,02:00,0.79611,R,ugm-3,5.72150,R,ugm-3,6.94219,R,ugm-3,52.95257,R,ugm-3
03-01-2018,03:00,0.25140,R,ugm-3,2.05714,R,ugm-3,2.44262,R,ugm-3,62.31573,R,ugm-3
03-01-2018,04:00,0.20950,R,ugm-3,1.41432,R,ugm-3,1.73555,R,ugm-3,71.74542,R,ugm-3
03-01-2018,05:00,0.08380,R,ugm-3,1.34994,R,ugm-3,1.47843,R,ugm-3,78.38112,R,ugm-3
03-01-2018,06:00,0.16760,R,ugm-3,2.18564,R,ugm-3,2.44262,R,ugm-3,75.63703,R,ugm-3
03-01-2018,07:00,0.12570,R,ugm-3,3.34263,R,ugm-3,3.53537,R,ugm-3,77.83230,R,ugm-3
03-01-2018,08:00,0.50281,R,ugm-3,3.92145,R,ugm-3,4.69241,R,ugm-3,76.33553,R,ugm-3
03-01-2018,09:00,1.00561,R,ugm-3,6.04307,R,ugm-3,7.58498,R,ugm-3,73.64133,R,ugm-3
03-01-2018,10:00,1.25701,R,ugm-3,9.77148,R,ugm-3,11.69887,R,ugm-3,66.50670,R,ugm-3
03-01-2018,11:00,5.90796,R,ugm-3,21.15262,R,ugm-3,30.21137,R,ugm-3,57.02713,R,ugm-3
03-01-2018,12:00,4.69285,R,ugm-3,14.72371,R,ugm-3,21.91931,R,ugm-3,65.15961,R,ugm-3
03-01-2018,13:00,4.86045,R,ugm-3,26.87267,R,ugm-3,34.32526,R,ugm-3,54.43272,R,ugm-3
03-01-2018,14:00,3.12857,R,ugm-3,26.57133,R,ugm-3,31.36840,R,ugm-3,51.13981,R,ugm-3
03-01-2018,15:00,,,,,,,,,,,,
03-01-2018,16:00,,,,,,,,,,,,
03-01-2018,17:00,1.71792,R,ugm-3,24.29901,R,ugm-3,26.93311,R,ugm-3,33.52776,R,ugm-3
03-01-2018,18:00,0.92181,R,ugm-3,19.47742,R,ugm-3,20.89084,R,ugm-3,39.66454,R,ugm-3
03-01-2018,19:00,0.58661,R,ugm-3,13.56344,R,ugm-3,14.46289,R,ugm-3,48.99444,R,ugm-3
03-01-2018,20:00,0.54471,R,ugm-3,10.99223,R,ugm-3,11.82743,R,ugm-3,48.34583,R,ugm-3
03-01-2018,21:00,0.37710,R,ugm-3,6.10685,R,ugm-3,6.68507,R,ugm-3,64.71057,R,ugm-3
03-01-2018,22:00,0.29330,R,ugm-3,3.72844,R,ugm-3,4.17817,R,ugm-3,75.33768,R,ugm-3
03-01-2018,23:00,0.71231,R,ugm-3,9.64249,R,ugm-3,10.73468,R,ugm-3,57.42627,R,ugm-3
03-01-2018,24:00,0.62851,R,ugm-3,10.09238,R,ugm-3,11.05608,R,ugm-3,46.74927,R,ugm-3
04-01-2018,01:00,0.56112,R,ugm-3,7.66086,R,ugm-3,8.52123,R,ugm-3,39.71443,R,ugm-3
04-01-2018,02:00,0.67334,R,ugm-3,3.87372,R,ugm-3,4.90617,R,ugm-3,44.96977,R,ugm-3
04-01-2018,03:00,0.63126,R,ugm-3,4.00280,R,ugm-3,4.97072,R,ugm-3,46.84906,R,ugm-3
04-01-2018,04:00,1.30460,R,ugm-3,4.58422,R,ugm-3,6.58459,R,ugm-3,45.35228,R,ugm-3
04-01-2018,05:00,1.05210,R,ugm-3,7.23081,R,ugm-3,8.84401,R,ugm-3,40.81207,R,ugm-3
04-01-2018,06:00,1.97795,R,ugm-3,5.48842,R,ugm-3,8.52123,R,ugm-3,48.94454,R,ugm-3
04-01-2018,07:00,220.01515,R,ugm-3,17.18310,R,ugm-3,354.53496,R,ugm-3,51.58885,R,ugm-3
04-01-2018,08:00,42.33650,R,ugm-3,44.50532,R,ugm-3,109.42039,R,ugm-3,30.98324,R,ugm-3
04-01-2018,09:00,10.01599,R,ugm-3,36.80264,R,ugm-3,52.16028,R,ugm-3,24.19786,R,ugm-3
04-01-2018,10:00,5.84968,R,ugm-3,29.95717,R,ugm-3,38.92655,R,ugm-3,30.48432,R,ugm-3
04-01-2018,11:00,10.52100,R,ugm-3,38.54594,R,ugm-3,54.67792,R,ugm-3,26.24346,R,ugm-3
04-01-2018,12:00,1.64128,R,ugm-3,14.71954,R,ugm-3,17.23613,R,ugm-3,47.84691,R,ugm-3
04-01-2018,13:00,0.37876,R,ugm-3,3.48620,R,ugm-3,4.06695,R,ugm-3,59.72132,R,ugm-3
04-01-2018,14:00,0.46292,R,ugm-3,3.87358,R,ugm-3,4.58339,R,ugm-3,54.63229,R,ugm-3
04-01-2018,15:00,0.75751,R,ugm-3,6.64963,R,ugm-3,7.81113,R,ugm-3,49.19401,R,ugm-3
04-01-2018,16:00,4.62924,R,ugm-3,13.81769,R,ugm-3,20.91576,R,ugm-3,38.11787,R,ugm-3
04-01-2018,17:00,0.67334,R,ugm-3,17.68845,R,ugm-3,18.72089,R,ugm-3,31.83142,R,ugm-3
04-01-2018,18:00,1.85170,R,ugm-3,29.56728,R,ugm-3,32.40651,R,ugm-3,17.86152,R,ugm-3
04-01-2018,19:00,2.06212,R,ugm-3,26.33968,R,ugm-3,29.50154,R,ugm-3,15.26711,R,ugm-3
04-01-2018,20:00,6.56510,R,ugm-3,27.76276,R,ugm-3,37.82911,R,ugm-3,11.27571,R,ugm-3
04-01-2018,21:00,1.76753,R,ugm-3,13.68675,R,ugm-3,16.39692,R,ugm-3,27.39098,R,ugm-3
04-01-2018,22:00,0.29459,R,ugm-3,4.77724,R,ugm-3,5.22894,R,ugm-3,40.51271,R,ugm-3
04-01-2018,23:00,0.29459,R,ugm-3,4.38991,R,ugm-3,4.84161,R,ugm-3,45.20261,R,ugm-3
04-01-2018,24:00,0.21042,R,ugm-3,3.35698,R,ugm-3,3.67962,R,ugm-3,48.19616,R,ugm-3
05-01-2018,01:00,0.28178,R,ugm-3,3.45774,R,ugm-3,3.88981,R,ugm-3,48.62856,R,ugm-3
05-01-2018,02:00,0.39450,R,ugm-3,2.93916,R,ugm-3,3.54405,R,ugm-3,49.69293,R,ugm-3
05-01-2018,03:00,0.21134,R,ugm-3,2.72297,R,ugm-3,3.04701,R,ugm-3,50.09207,R,ugm-3
05-01-2018,04:00,0.42268,R,ugm-3,3.95484,R,ugm-3,4.60294,R,ugm-3,45.25250,R,ugm-3
05-01-2018,05:00,2.70512,R,ugm-3,7.19747,R,ugm-3,11.34527,R,ugm-3,46.99874,R,ugm-3
05-01-2018,06:00,0.25361,R,ugm-3,2.46367,R,ugm-3,2.85252,R,ugm-3,52.83616,R,ugm-3
05-01-2018,07:00,0.25361,R,ugm-3,3.88993,R,ugm-3,4.27879,R,ugm-3,54.13336,R,ugm-3
05-01-2018,08:00,0.25361,R,ugm-3,3.37129,R,ugm-3,3.76015,R,ugm-3,59.22240,R,ugm-3
05-01-2018,09:00,0.38041,R,ugm-3,5.83490,R,ugm-3,6.41818,R,ugm-3,57.57595,R,ugm-3
05-01-2018,10:00,0.46494,R,ugm-3,6.93705,R,ugm-3,7.64995,R,ugm-3,54.68218,R,ugm-3
05-01-2018,11:00,0.67628,R,ugm-3,6.35368,R,ugm-3,7.39063,R,ugm-3,55.13121,R,ugm-3
05-01-2018,12:00,0.46494,R,ugm-3,3.43622,R,ugm-3,4.14913,R,ugm-3,60.27014,R,ugm-3
05-01-2018,13:00,0.46494,R,ugm-3,3.63071,R,ugm-3,4.34362,R,ugm-3,62.16606,R,ugm-3
05-01-2018,14:00,0.54948,R,ugm-3,3.24178,R,ugm-3,4.08430,R,ugm-3,60.91874,R,ugm-3
05-01-2018,15:00,0.54948,R,ugm-3,3.76042,R,ugm-3,4.60294,R,ugm-3,60.51960,R,ugm-3
05-01-2018,16:00,0.54948,R,ugm-3,4.86253,R,ugm-3,5.70505,R,ugm-3,57.07702,R,ugm-3
05-01-2018,17:00,0.42268,R,ugm-3,5.83492,R,ugm-3,6.48301,R,ugm-3,55.92949,R,ugm-3
05-01-2018,18:00,0.59175,R,ugm-3,7.19643,R,ugm-3,8.10376,R,ugm-3,55.18111,R,ugm-3
05-01-2018,19:00,0.76082,R,ugm-3,6.80753,R,ugm-3,7.97410,R,ugm-3,51.43917,R,ugm-3
05-01-2018,20:00,0.46494,R,ugm-3,5.51079,R,ugm-3,6.22369,R,ugm-3,51.43917,R,ugm-3
05-01-2018,21:00,0.42268,R,ugm-3,4.27899,R,ugm-3,4.92709,R,ugm-3,53.93379,R,ugm-3
05-01-2018,22:00,0.38041,R,ugm-3,3.30652,R,ugm-3,3.88981,R,ugm-3,57.57595,R,ugm-3
05-01-2018,23:00,0.33814,R,ugm-3,3.69548,R,ugm-3,4.21396,R,ugm-3,57.97509,R,ugm-3
05-01-2018,24:00,0.21134,R,ugm-3,2.20433,R,ugm-3,2.52838,R,ugm-3,61.01853,R,ugm-3
06-01-2018,01:00,0.16981,R,ugm-3,2.17024,R,ugm-3,2.43060,R,ugm-3,60.27014,R,ugm-3
06-01-2018,02:00,0.42451,R,ugm-3,0.84652,R,ugm-3,1.49742,R,ugm-3,64.52763,R,ugm-3
06-01-2018,03:00,0.25471,R,ugm-3,0.84646,R,ugm-3,1.23700,R,ugm-3,66.05767,R,ugm-3
06-01-2018,04:00,0.21226,R,ugm-3,0.52092,R,ugm-3,0.84637,R,ugm-3,71.54585,R,ugm-3
06-01-2018,05:00,0.08490,R,ugm-3,0.58598,R,ugm-3,0.71616,R,ugm-3,77.98198,R,ugm-3
06-01-2018,06:00,0.16981,R,ugm-3,0.71622,R,ugm-3,0.97658,R,ugm-3,79.72822,R,ugm-3
06-01-2018,07:00,0.16981,R,ugm-3,0.97664,R,ugm-3,1.23700,R,ugm-3,78.53080,R,ugm-3
06-01-2018,08:00,0.16981,R,ugm-3,1.56259,R,ugm-3,1.82295,R,ugm-3,76.73467,R,ugm-3
06-01-2018,09:00,0.25471,R,ugm-3,2.47409,R,ugm-3,2.86464,R,ugm-3,78.58069,R,ugm-3
06-01-2018,10:00,0.29716,R,ugm-3,3.97153,R,ugm-3,4.42717,R,ugm-3,73.44176,R,ugm-3
06-01-2018,11:00,0.38206,R,ugm-3,2.99498,R,ugm-3,3.58080,R,ugm-3,74.04047,R,ugm-3
06-01-2018,12:00,0.50941,R,ugm-3,3.84139,R,ugm-3,4.62248,R,ugm-3,74.38972,R,ugm-3
06-01-2018,13:00,0.72167,R,ugm-3,5.72952,R,ugm-3,6.83607,R,ugm-3,70.34843,R,ugm-3
06-01-2018,14:00,0.55186,R,ugm-3,4.55757,R,ugm-3,5.40375,R,ugm-3,75.03832,R,ugm-3
06-01-2018,15:00,0.84902,R,ugm-3,6.64104,R,ugm-3,7.94286,R,ugm-3,67.00563,R,ugm-3
06-01-2018,16:00,14.05132,R,ugm-3,43.62545,R,ugm-3,65.17050,R,ugm-3,29.33679,R,ugm-3
06-01-2018,17:00,19.69731,R,ugm-3,52.02598,R,ugm-3,82.22811,R,ugm-3,8.03269,R,ugm-3
06-01-2018,18:00,6.74973,R,ugm-3,39.97703,R,ugm-3,50.32647,R,ugm-3,21.55356,R,ugm-3
06-01-2018,19:00,6.70728,R,ugm-3,36.72175,R,ugm-3,47.00609,R,ugm-3,15.61635,R,ugm-3
06-01-2018,20:00,63.16725,R,ugm-3,71.83298,R,ugm-3,168.68807,R,ugm-3,9.82882,R,ugm-3
06-01-2018,21:00,10.52787,R,ugm-3,38.09028,R,ugm-3,54.23279,R,ugm-3,15.51657,R,ugm-3
06-01-2018,22:00,11.12219,R,ugm-3,42.71296,R,ugm-3,59.76675,R,ugm-3,4.78968,R,ugm-3
06-01-2018,23:00,13.75416,R,ugm-3,41.67218,R,ugm-3,62.76160,R,ugm-3,2.24516,R,ugm-3
06-01-2018,24:00,9.16944,R,ugm-3,37.30854,R,ugm-3,51.36815,R,ugm-3,6.13678,R,ugm-3
07-01-2018,01:00,1.64854,R,ugm-3,18.74279,R,ugm-3,21.27052,R,ugm-3,17.29607,R,ugm-3
07-01-2018,02:00,2.08910,R,ugm-3,20.33381,R,ugm-3,23.53705,R,ugm-3,13.30467,R,ugm-3
07-01-2018,03:00,1.57748,R,ugm-3,13.92640,R,ugm-3,16.34517,R,ugm-3,15.81592,R,ugm-3
07-01-2018,04:00,1.23641,R,ugm-3,13.01100,R,ugm-3,14.90680,R,ugm-3,12.72259,R,ugm-3
07-01-2018,05:00,2.94179,R,ugm-3,16.54190,R,ugm-3,21.05258,R,ugm-3,10.57721,R,ugm-3
07-01-2018,06:00,2.64335,R,ugm-3,16.21493,R,ugm-3,20.26801,R,ugm-3,6.78538,R,ugm-3
07-01-2018,07:00,6.18203,R,ugm-3,20.92305,R,ugm-3,30.40202,R,ugm-3,6.33635,R,ugm-3
07-01-2018,08:00,5.45724,R,ugm-3,24.06118,R,ugm-3,32.42882,R,ugm-3,6.93506,R,ugm-3
07-01-2018,09:00,11.29818,R,ugm-3,28.90051,R,ugm-3,46.22415,R,ugm-3,3.04344,R,ugm-3
07-01-2018,10:00,15.77482,R,ugm-3,30.53591,R,ugm-3,54.72363,R,ugm-3,3.69205,R,ugm-3
07-01-2018,11:00,318.18246,R,ugm-3,209.67358,R,ugm-3,697.54655,R,ugm-3,3.94151,R,ugm-3
07-01-2018,12:00,19.31350,R,ugm-3,34.00179,R,ugm-3,63.61541,R,ugm-3,8.53162,R,ugm-3
07-01-2018,13:00,10.91447,R,ugm-3,25.95830,R,ugm-3,42.69359,R,ugm-3,16.31485,R,ugm-3
07-01-2018,14:00,7.80214,R,ugm-3,25.36925,R,ugm-3,37.33237,R,ugm-3,17.71184,R,ugm-3
07-01-2018,15:00,9.63543,R,ugm-3,35.50362,R,ugm-3,50.27775,R,ugm-3,10.67700,R,ugm-3
07-01-2018,16:00,17.73602,R,ugm-3,43.74320,R,ugm-3,70.93805,R,ugm-3,4.68990,R,ugm-3
07-01-2018,17:00,20.50727,R,ugm-3,42.10923,R,ugm-3,73.55327,R,ugm-3,1.54667,R,ugm-3
07-01-2018,18:00,32.91396,R,ugm-3,42.30783,R,ugm-3,92.77520,R,ugm-3,0.64860,R,ugm-3
07-01-2018,19:00,372.75483,R,ugm-3,128.08930,R,ugm-3,699.63873,R,ugm-3,0.34925,R,ugm-3
07-01-2018,20:00,199.35967,R,ugm-3,99.35280,R,ugm-3,405.03336,R,ugm-3,0.54882,R,ugm-3
07-01-2018,21:00,40.88664,R,ugm-3,39.30190,R,ugm-3,101.99387,R,ugm-3,1.69635,R,ugm-3
07-01-2018,22:00,12.57722,R,ugm-3,30.20837,R,ugm-3,49.49318,R,ugm-3,2.64430,R,ugm-3
07-01-2018,23:00,8.52693,R,ugm-3,30.73061,R,ugm-3,43.80506,R,ugm-3,3.04344,R,ugm-3
07-01-2018,24:00,2.04646,R,ugm-3,17.65319,R,ugm-3,20.79106,R,ugm-3,13.57076,R,ugm-3
08-01-2018,01:00,1.48436,R,ugm-3,17.15818,R,ugm-3,19.43417,R,ugm-3,12.04072,R,ugm-3
08-01-2018,02:00,1.11327,R,ugm-3,8.53534,R,ugm-3,10.24233,R,ugm-3,22.68446,R,ugm-3
08-01-2018,03:00,1.11327,R,ugm-3,14.96962,R,ugm-3,16.67662,R,ugm-3,10.87657,R,ugm-3
08-01-2018,04:00,2.31218,R,ugm-3,16.54543,R,ugm-3,20.09073,R,ugm-3,5.63785,R,ugm-3
08-01-2018,05:00,2.74037,R,ugm-3,18.77776,R,ugm-3,22.97959,R,ugm-3,4.73979,R,ugm-3
08-01-2018,06:00,8.00701,R,ugm-3,26.52545,R,ugm-3,38.80269,R,ugm-3,1.64645,R,ugm-3
08-01-2018,07:00,332.48342,R,ugm-3,92.72415,R,ugm-3,602.52496,R,ugm-3,0.24946,R,ugm-3
08-01-2018,08:00,267.95638,R,ugm-3,86.02377,R,ugm-3,496.88448,R,ugm-3,1.04774,R,ugm-3
08-01-2018,09:00,54.42195,R,ugm-3,51.28025,R,ugm-3,134.72608,R,ugm-3,1.49678,R,ugm-3
08-01-2018,10:00,48.42740,R,ugm-3,49.50722,R,ugm-3,123.76153,R,ugm-3,3.59226,R,ugm-3
08-01-2018,11:00,42.98949,R,ugm-3,44.91101,R,ugm-3,110.82730,R,ugm-3,4.04129,R,ugm-3
08-01-2018,12:00,33.35539,R,ugm-3,40.57719,R,ugm-3,91.72141,R,ugm-3,8.38194,R,ugm-3
08-01-2018,13:00,33.31257,R,ugm-3,39.06710,R,ugm-3,90.14567,R,ugm-3,10.92646,R,ugm-3
08-01-2018,14:00,18.88283,R,ugm-3,35.84918,R,ugm-3,64.80246,R,ugm-3,19.15872,R,ugm-3
08-01-2018,15:00,22.17983,R,ugm-3,43.20283,R,ugm-3,77.21144,R,ugm-3,20.45593,R,ugm-3
08-01-2018,16:00,10.83301,R,ugm-3,37.81843,R,ugm-3,54.42881,R,ugm-3,30.18496,R,ugm-3
08-01-2018,17:00,7.10782,R,ugm-3,35.19199,R,ugm-3,46.09050,R,ugm-3,36.82067,R,ugm-3
08-01-2018,18:00,10.83301,R,ugm-3,48.25773,R,ugm-3,64.86811,R,ugm-3,22.95055,R,ugm-3
08-01-2018,19:00,8.64928,R,ugm-3,34.86379,R,ugm-3,48.12584,R,ugm-3,37.96819,R,ugm-3
08-01-2018,20:00,1.96964,R,ugm-3,13.32827,R,ugm-3,16.34834,R,ugm-3,58.12476,R,ugm-3
08-01-2018,21:00,0.94200,R,ugm-3,11.62116,R,ugm-3,13.06554,R,ugm-3,55.92949,R,ugm-3
08-01-2018,22:00,0.64227,R,ugm-3,5.84342,R,ugm-3,6.82822,R,ugm-3,65.35918,R,ugm-3
08-01-2018,23:00,1.07046,R,ugm-3,3.47982,R,ugm-3,5.12117,R,ugm-3,68.30283,R,ugm-3
08-01-2018,24:00,0.29973,R,ugm-3,2.49494,R,ugm-3,2.95452,R,ugm-3,67.20520,R,ugm-3
09-01-2018,01:00,0.40135,R,ugm-3,6.06564,R,ugm-3,6.68104,R,ugm-3,58.67358,R,ugm-3
09-01-2018,02:00,0.45869,R,ugm-3,2.81303,R,ugm-3,3.51634,R,ugm-3,66.72290,R,ugm-3
09-01-2018,03:00,0.17201,R,ugm-3,0.46150,R,ugm-3,0.72525,R,ugm-3,72.69337,R,ugm-3
09-01-2018,04:00,0.51602,R,ugm-3,2.63721,R,ugm-3,3.42843,R,ugm-3,62.56520,R,ugm-3
09-01-2018,05:00,3.95616,R,ugm-3,11.53762,R,ugm-3,17.60365,R,ugm-3,58.22455,R,ugm-3
09-01-2018,06:00,11.69648,R,ugm-3,22.02000,R,ugm-3,39.95436,R,ugm-3,41.01164,R,ugm-3
09-01-2018,07:00,24.29600,R,ugm-3,27.09559,R,ugm-3,64.34893,R,ugm-3,38.06798,R,ugm-3
09-01-2018,08:00,17.63072,R,ugm-3,40.41430,R,ugm-3,67.44770,R,ugm-3,24.99614,R,ugm-3
09-01-2018,09:00,17.28671,R,ugm-3,49.77657,R,ugm-3,76.28249,R,ugm-3,17.06324,R,ugm-3
09-01-2018,10:00,11.52447,R,ugm-3,32.04157,R,ugm-3,49.71218,R,ugm-3,28.88776,R,ugm-3
09-01-2018,11:00,15.69564,R,ugm-3,36.32673,R,ugm-3,60.39305,R,ugm-3,19.85722,R,ugm-3
09-01-2018,12:00,2.79511,R,ugm-3,10.21910,R,ugm-3,14.50488,R,ugm-3,47.09852,R,ugm-3
09-01-2018,13:00,3.91316,R,ugm-3,13.18591,R,ugm-3,19.18600,R,ugm-3,45.00304,R,ugm-3
09-01-2018,14:00,11.09446,R,ugm-3,22.67937,R,ugm-3,39.69063,R,ugm-3,35.37378,R,ugm-3
09-01-2018,15:00,2.49410,R,ugm-3,8.57084,R,ugm-3,12.39508,R,ugm-3,49.74282,R,ugm-3
09-01-2018,16:00,0.94604,R,ugm-3,5.93373,R,ugm-3,7.38430,R,ugm-3,51.04003,R,ugm-3
09-01-2018,17:00,7.43931,R,ugm-3,21.16328,R,ugm-3,32.57005,R,ugm-3,34.17636,R,ugm-3
09-01-2018,18:00,8.21334,R,ugm-3,21.88845,R,ugm-3,34.48206,R,ugm-3,29.93550,R,ugm-3
09-01-2018,19:00,2.58011,R,ugm-3,12.26299,R,ugm-3,16.21909,R,ugm-3,35.12432,R,ugm-3
09-01-2018,20:00,2.15009,R,ugm-3,12.19710,R,ugm-3,15.49385,R,ugm-3,34.82497,R,ugm-3
09-01-2018,21:00,0.30101,R,ugm-3,4.54923,R,ugm-3,5.01078,R,ugm-3,42.85766,R,ugm-3
09-01-2018,22:00,0.86004,R,ugm-3,6.06560,R,ugm-3,7.38430,R,ugm-3,40.01379,R,ugm-3
09-01-2018,23:00,0.51602,R,ugm-3,4.87887,R,ugm-3,5.67009,R,ugm-3,46.69938,R,ugm-3
09-01-2018,24:00,0.55902,R,ugm-3,4.35141,R,ugm-3,5.20857,R,ugm-3,47.49766,R,ugm-3
10-01-2018,01:00,0.51822,R,ugm-3,4.59020,R,ugm-3,5.38480,R,ugm-3,44.96977,R,ugm-3
10-01-2018,02:00,0.77734,R,ugm-3,4.83290,R,ugm-3,6.02480,R,ugm-3,41.04490,R,ugm-3
10-01-2018,03:00,0.64778,R,ugm-3,5.62741,R,ugm-3,6.62066,R,ugm-3,34.77507,R,ugm-3
10-01-2018,04:00,0.77734,R,ugm-3,6.68668,R,ugm-3,7.87858,R,ugm-3,30.33464,R,ugm-3
10-01-2018,05:00,7.47106,R,ugm-3,11.58442,R,ugm-3,23.03989,R,ugm-3,26.74238,R,ugm-3
10-01-2018,06:00,7.12558,R,ugm-3,14.36518,R,ugm-3,25.29091,R,ugm-3,28.08948,R,ugm-3
10-01-2018,07:00,1.07963,R,ugm-3,13.90313,R,ugm-3,15.55855,R,ugm-3,20.95485,R,ugm-3
10-01-2018,08:00,26.38623,R,ugm-3,30.58133,R,ugm-3,71.03965,R,ugm-3,1.04774,R,ugm-3
10-01-2018,09:00,36.53478,R,ugm-3,32.30036,R,ugm-3,88.31957,R,ugm-3,0.34925,R,ugm-3
10-01-2018,10:00,64.17338,R,ugm-3,33.88292,R,ugm-3,132.28074,R,ugm-3,1.69635,R,ugm-3
10-01-2018,11:00,14.94212,R,ugm-3,19.72610,R,ugm-3,42.63703,R,ugm-3,3.69205,R,ugm-3
10-01-2018,12:00,43.83310,R,ugm-3,26.14146,R,ugm-3,93.35127,R,ugm-3,2.64430,R,ugm-3
10-01-2018,13:00,27.81135,R,ugm-3,26.60861,R,ugm-3,69.25208,R,ugm-3,3.54237,R,ugm-3
10-01-2018,14:00,7.94610,R,ugm-3,17.21187,R,ugm-3,29.39572,R,ugm-3,9.47958,R,ugm-3
10-01-2018,15:00,6.21869,R,ugm-3,14.03436,R,ugm-3,23.56954,R,ugm-3,12.27356,R,ugm-3
10-01-2018,16:00,37.78715,R,ugm-3,28.46009,R,ugm-3,86.39958,R,ugm-3,2.29506,R,ugm-3
10-01-2018,17:00,56.83188,R,ugm-3,33.68600,R,ugm-3,120.82700,R,ugm-3,0.74839,R,ugm-3
10-01-2018,18:00,101.83098,R,ugm-3,37.18454,R,ugm-3,193.32320,R,ugm-3,0.69850,R,ugm-3
10-01-2018,19:00,48.49711,R,ugm-3,26.20658,R,ugm-3,100.56779,R,ugm-3,0.79828,R,ugm-3
10-01-2018,20:00,25.22023,R,ugm-3,25.61611,R,ugm-3,64.28658,R,ugm-3,2.64430,R,ugm-3
10-01-2018,21:00,42.45117,R,ugm-3,24.68523,R,ugm-3,89.77611,R,ugm-3,0.29936,R,ugm-3
10-01-2018,22:00,28.28638,R,ugm-3,19.72301,R,ugm-3,63.09487,R,ugm-3,0.89807,R,ugm-3
10-01-2018,23:00,8.59388,R,ugm-3,16.54966,R,ugm-3,29.72675,R,ugm-3,1.59656,R,ugm-3
10-01-2018,24:00,11.01226,R,ugm-3,17.40978,R,ugm-3,34.29501,R,ugm-3,-0.14968,R,ugm-3
11-01-2018,01:00,6.64989,R,ugm-3,15.06675,R,ugm-3,25.26311,R,ugm-3,1.19742,R,ugm-3
11-01-2018,02:00,7.40162,R,ugm-3,13.73683,R,ugm-3,25.08583,R,ugm-3,1.19742,R,ugm-3
11-01-2018,03:00,2.21181,R,ugm-3,10.23739,R,ugm-3,13.62878,R,ugm-3,6.08689,R,ugm-3
11-01-2018,04:00,3.12256,R,ugm-3,10.83538,R,ugm-3,15.62324,R,ugm-3,4.73979,R,ugm-3
11-01-2018,05:00,5.11753,R,ugm-3,11.03409,R,ugm-3,18.88085,R,ugm-3,4.14108,R,ugm-3
11-01-2018,06:00,4.64047,R,ugm-3,12.49686,R,ugm-3,19.61215,R,ugm-3,2.64430,R,ugm-3
11-01-2018,07:00,12.14328,R,ugm-3,15.02038,R,ugm-3,33.63983,R,ugm-3,1.94581,R,ugm-3
11-01-2018,08:00,39.63915,R,ugm-3,24.91595,R,ugm-3,85.69513,R,ugm-3,0.29936,R,ugm-3
11-01-2018,09:00,59.71894,R,ugm-3,33.88353,R,ugm-3,125.45129,R,ugm-3,0.34925,R,ugm-3
11-01-2018,10:00,36.90691,R,ugm-3,27.77569,R,ugm-3,84.36549,R,ugm-3,1.29721,R,ugm-3
11-01-2018,11:00,29.62094,R,ugm-3,22.85874,R,ugm-3,68.27688,R,ugm-3,3.69205,R,ugm-3
11-01-2018,12:00,18.60525,R,ugm-3,18.87393,R,ugm-3,47.40157,R,ugm-3,5.88732,R,ugm-3
11-01-2018,13:00,,,,,,,,,,,,
11-01-2018,14:00,,,,,,,,,,,,
11-01-2018,15:00,,,,,,,,,,,,
11-01-2018,16:00,,,,,,,,,,,,
11-01-2018,17:00,,,,,,,,,,,,
11-01-2018,18:00,,,,,,,,,,,,
11-01-2018,19:00,,,,,,,,,,,,
11-01-2018,20:00,,,,,,,,,,,,
11-01-2018,21:00,,,,,,,,,,,,
11-01-2018,22:00,,,,,,,,,,,,
11-01-2018,23:00,,,,,,,,,,,,
11-01-2018,24:00,,,,,,,,,,,,
12-01-2018,01:00,,,,,,,,,,,,
12-01-2018,02:00,,,,,,,,,,,,
12-01-2018,03:00,,,,,,,,,,,,
12-01-2018,04:00,,,,,,,,,,,,
12-01-2018,05:00,,,,,,,,,,,,
12-01-2018,06:00,,,,,,,,,,,,
12-01-2018,07:00,,,,,,,,,,,,
12-01-2018,08:00,,,,,,,,,,,,
12-01-2018,09:00,,,,,,,,,,,,
12-01-2018,10:00,,,,,,,,,,,,
12-01-2018,11:00,,,,,,,,,,,,
12-01-2018,12:00,1.12646,R,ugm-3,4.76688,R,ugm-3,6.49410,R,ugm-3,54.33293,R,ugm-3
12-01-2018,13:00,2.62841,R,ugm-3,9.72204,R,ugm-3,13.75222,R,ugm-3,52.23745,R,ugm-3
12-01-2018,14:00,0.56323,R,ugm-3,4.15022,R,ugm-3,5.01383,R,ugm-3,61.06842,R,ugm-3
12-01-2018,15:00,0.97001,R,ugm-3,6.58255,R,ugm-3,8.06988,R,ugm-3,58.02498,R,ugm-3
12-01-2018,16:00,1.00130,R,ugm-3,6.91658,R,ugm-3,8.45188,R,ugm-3,58.12476,R,ugm-3
12-01-2018,17:00,4.28682,R,ugm-3,19.45113,R,ugm-3,26.02416,R,ugm-3,45.85121,R,ugm-3
12-01-2018,18:00,2.53454,R,ugm-3,14.35455,R,ugm-3,18.24079,R,ugm-3,51.68863,R,ugm-3
12-01-2018,19:00,0.34420,R,ugm-3,7.49437,R,ugm-3,8.02213,R,ugm-3,55.38068,R,ugm-3
12-01-2018,20:00,0.71969,R,ugm-3,6.34562,R,ugm-3,7.44912,R,ugm-3,63.41337,R,ugm-3
12-01-2018,21:00,0.43807,R,ugm-3,4.00788,R,ugm-3,4.67957,R,ugm-3,66.75617,R,ugm-3
12-01-2018,22:00,0.43807,R,ugm-3,3.81687,R,ugm-3,4.48857,R,ugm-3,66.20735,R,ugm-3
12-01-2018,23:00,0.28162,R,ugm-3,3.43601,R,ugm-3,3.86781,R,ugm-3,66.60649,R,ugm-3
12-01-2018,24:00,0.25033,R,ugm-3,2.91098,R,ugm-3,3.29480,R,ugm-3,66.25724,R,ugm-3
13-01-2018,01:00,0.20934,R,ugm-3,3.31743,R,ugm-3,3.63842,R,ugm-3,63.26369,R,ugm-3
13-01-2018,02:00,0.31402,R,ugm-3,3.25268,R,ugm-3,3.73416,R,ugm-3,58.54053,R,ugm-3
13-01-2018,03:00,0.47102,R,ugm-3,3.73004,R,ugm-3,4.45227,R,ugm-3,56.42842,R,ugm-3
13-01-2018,04:00,0.28261,R,ugm-3,3.34870,R,ugm-3,3.78204,R,ugm-3,56.72777,R,ugm-3
13-01-2018,05:00,0.56523,R,ugm-3,3.87284,R,ugm-3,4.73952,R,ugm-3,56.72777,R,ugm-3
13-01-2018,06:00,0.28261,R,ugm-3,4.64130,R,ugm-3,5.07463,R,ugm-3,52.23745,R,ugm-3
13-01-2018,07:00,0.59663,R,ugm-3,4.92579,R,ugm-3,5.84061,R,ugm-3,53.68433,R,ugm-3
13-01-2018,08:00,0.69084,R,ugm-3,4.54198,R,ugm-3,5.60125,R,ugm-3,53.98369,R,ugm-3
13-01-2018,09:00,0.69084,R,ugm-3,5.73883,R,ugm-3,6.79809,R,ugm-3,49.54325,R,ugm-3
13-01-2018,10:00,0.75364,R,ugm-3,5.69040,R,ugm-3,6.84597,R,ugm-3,47.44777,R,ugm-3
13-01-2018,11:00,0.97345,R,ugm-3,6.69383,R,ugm-3,8.18644,R,ugm-3,48.24605,R,ugm-3
13-01-2018,12:00,1.09906,R,ugm-3,6.35762,R,ugm-3,8.04281,R,ugm-3,50.34153,R,ugm-3
13-01-2018,13:00,1.13046,R,ugm-3,6.11797,R,ugm-3,7.85132,R,ugm-3,53.18541,R,ugm-3